TimeEST,TemperatureF,Dew PointF,Humidity,Sea Level PressureIn,VisibilityMPH,Wind Direction,Wind SpeedMPH,Gust SpeedMPH,PrecipitationIn,Events,Conditions,WindDirDegrees,DateUTC
12:04 AM,32.0,32.0,100,30.10,1.0,ESE,3.5,-,0.01,Snow,Light Snow,120,1999-01-20 05:04:00
12:11 AM,32.0,32.0,100,30.10,2.5,ESE,3.5,-,0.01,Snow,Light Snow,110,1999-01-20 05:11:00
12:25 AM,32.0,32.0,100,30.09,4.0,ESE,4.6,-,0.02,Rain-Snow,Light Freezing Rain,110,1999-01-20 05:25:00
12:53 AM,33.1,32.0,96,30.12,8.0,Calm,Calm,-,0.02,Rain,Light Rain,0,1999-01-20 05:53:00
12:58 AM,33.8,32.0,93,30.09,9.0,Calm,Calm,-,0.00,Rain,Light Rain,0,1999-01-20 05:58:00
1:53 AM,33.1,32.0,96,30.13,6.0,Calm,Calm,-,0.00,,Overcast,0,1999-01-20 06:53:00
2:53 AM,33.1,32.0,96,30.12,10.0,Calm,Calm,-,0.00,Rain,Light Rain,0,1999-01-20 07:53:00
3:53 AM,33.1,32.0,96,30.10,10.0,South,5.8,-,0.00,Rain,Light Rain,180,1999-01-20 08:53:00
4:53 AM,37.0,33.1,86,30.09,10.0,Calm,Calm,-,0.01,Rain,Light Rain,0,1999-01-20 09:53:00
5:07 AM,35.6,33.8,93,30.07,10.0,ESE,3.5,-,0.00,Rain,Light Rain,110,1999-01-20 10:07:00
5:53 AM,35.1,35.1,100,30.09,6.0,East,4.6,-,0.01,Rain,Light Rain,100,1999-01-20 10:53:00
6:53 AM,36.0,35.1,97,30.09,8.0,Calm,Calm,-,0.01,Rain,Light Rain,0,1999-01-20 11:53:00
7:16 AM,35.6,35.6,100,30.07,5.0,North,3.5,-,0.01,Rain,Light Rain,360,1999-01-20 12:16:00
8:14 AM,35.6,33.8,93,30.08,1.8,Calm,Calm,-,0.01,Rain,Light Rain,0,1999-01-20 13:14:00
8:24 AM,35.6,35.6,100,30.08,1.2,NE,3.5,-,0.01,Rain,Light Rain,40,1999-01-20 13:24:00
8:28 AM,35.6,33.8,93,30.08,2.0,NE,4.6,-,0.01,Rain,Light Rain,40,1999-01-20 13:28:00
8:33 AM,35.6,35.6,100,30.09,3.0,WNW,3.5,-,0.01,Rain,Light Rain,290,1999-01-20 13:33:00
8:43 AM,35.6,33.8,93,30.09,2.0,NNE,3.5,-,0.01,Rain,Light Rain,20,1999-01-20 13:43:00
8:53 AM,35.1,34.0,96,30.12,5.0,Calm,Calm,-,0.02,Rain,Light Rain,0,1999-01-20 13:53:00
9:53 AM,37.0,37.0,100,30.11,2.0,Calm,Calm,-,0.00,,Overcast,0,1999-01-20 14:53:00
10:01 AM,37.4,37.4,100,30.08,3.0,Calm,Calm,-,N/A,,Overcast,0,1999-01-20 15:01:00
10:53 AM,39.0,37.9,96,30.13,5.0,NE,3.5,-,N/A,,Overcast,50,1999-01-20 15:53:00
11:53 AM,41.0,37.9,89,30.10,7.0,ENE,4.6,-,N/A,,Overcast,60,1999-01-20 16:53:00
12:53 PM,42.1,39.0,89,30.08,10.0,Variable,4.6,-,N/A,,Overcast,0,1999-01-20 17:53:00
1:53 PM,43.0,39.9,89,30.06,10.0,NNE,4.6,-,N/A,,Overcast,20,1999-01-20 18:53:00
2:53 PM,45.0,39.9,82,30.06,10.0,Calm,Calm,-,N/A,,Overcast,0,1999-01-20 19:53:00
3:53 PM,46.0,37.0,71,30.06,10.0,North,4.6,-,N/A,,Mostly Cloudy,360,1999-01-20 20:53:00
4:53 PM,44.1,37.0,76,30.06,10.0,East,4.6,-,N/A,,Mostly Cloudy,80,1999-01-20 21:53:00
5:53 PM,42.1,37.0,82,30.06,10.0,North,4.6,-,N/A,,Overcast,10,1999-01-20 22:53:00
6:53 PM,39.0,37.0,93,30.08,10.0,NNE,4.6,-,N/A,,Mostly Cloudy,30,1999-01-20 23:53:00
7:53 PM,37.0,36.0,96,30.09,10.0,NNE,3.5,-,N/A,,Mostly Cloudy,30,1999-01-21 00:53:00
8:53 PM,35.1,34.0,96,30.08,10.0,Calm,Calm,-,N/A,,Scattered Clouds,0,1999-01-21 01:53:00
9:53 PM,34.0,34.0,100,30.08,10.0,North,4.6,-,N/A,,Scattered Clouds,10,1999-01-21 02:53:00
10:53 PM,34.0,34.0,100,30.06,10.0,East,4.6,-,N/A,,Clear,80,1999-01-21 03:53:00